Temperature
19 18 18 18 17 17 17 17 17 17 17 17 17 17 17 17 17 17 17 17 16 16 16 16 16 16 16 16 16 16 16 16 15 15 15 15 15 15 15 15 15 15 15
18 18 18 18 17 17 17 17 17 17 17 17 17 17 17 17 17 16 16 16 16 16 16 16 16 16 16 16 16 16 16 15 15 15 15 15 15 15 15 14 14 14 14
18 18 18 17 17 17 17 17 17 17 17 17 16 16 16 16 16 16 16 16 16 16 15 15 15 15 16 16 15 15 15 15 15 15 14 14 14 14 14 14 14 14 14
17 17 17 17 17 17 17 17 16 16 16 16 16 16 16 16 16 16 16 15 15 15 15 15 15 15 15 15 15 15 15 14 14 14 14 14 14 14 14 14 14 14 13
17 17 17 17 16 16 16 16 16 16 16 16 16 16 15 15 15 15 15 15 15 15 15 15 15 15 15 14 14 14 14 14 14 14 14 14 13 13 13 13 13 13 13
17 17 17 16 16 16 16 16 16 15 15 15 15 15 15 15 15 15 15 15 15 15 15 14 14 14 14 14 14 14 14 14 14 13 13 13 13 13 13 12 12 12 12
17 17 16 16 16 16 16 15 15 15 15 15 15 15 14 14 14 14 14 14 14 14 14 14 14 14 14 14 14 14 14 13 13 13 13 13 13 12 12 12 12 12 12
16 16 16 16 15 15 15 15 15 15 15 14 14 14 14 14 14 14 14 14 14 14 14 14 14 14 14 13 13 13 13 13 13 13 13 13 12 12 12 12 12 11 12
16 16 16 15 15 15 15 15 15 15 14 14 14 14 14 14 14 14 14 14 14 14 14 14 13 13 13 13 13 13 13 13 13 13 12 12 12 12 12 11 11 11 11
16 16 16 15 15 15 15 15 14 14 14 14 14 14 14 14 13 13 13 13 13 13 13 13 13 13 13 13 13 13 13 13 12 12 12 12 12 12 12 11 11 11 11
16 16 15 15 15 15 15 15 14 14 14 14 14 13 13 13 13 13 13 13 13 13 13 13 13 13 13 12 12 12 12 12 12 12 12 12 12 12 12 11 11 11 10
15 15 15 15 15 14 14 14 14 14 14 13 13 13 13 13 13 13 13 13 12 12 13 13 12 12 12 12 12 12 12 12 12 12 12 12 12 11 11 11 11 11 10
15 15 15 15 14 14 14 14 14 13 13 13 13 13 13 13 13 13 12 12 12 12 12 12 12 12 12 12 12 12 12 12 11 11 11 11 11 11 11 11 11 10 10
15 15 14 14 14 14 13 13 13 13 13 13 13 12 12 12 12 12 12 12 12 12 12 12 12 12 12 12 12 12 12 11 11 11 11 11 11 11 11 10 10 10 10
14 14 14 14 14 13 13 13 13 13 12 12 12 12 12 12 12 12 12 12 12 12 12 12 12 12 12 12 12 12 11 11 11 11 11 11 11 10 10 10 10 9 9
14 13 13 13 13 13 13 13 12 12 12 12 12 12 12 12 12 12 12 12 11 11 11 11 11 11 11 11 11 11 11 11 11 11 11 10 10 10 10 10 9 9 9
13 13 12 12 12 12 12 12 12 12 12 12 12 12 12 12 12 11 11 11 11 11 11 11 11 11 11 11 11 11 11 11 11 10 10 10 10 10 10 9 9 9 9
12 12 12 12 12 12 11 11 11 11 11 12 12 12 12 11 11 11 11 11 11 11 11 10 10 10 10 10 10 11 11 10 10 10 10 10 10 9 9 9 9 9 9
12 12 11 11 11 11 11 11 11 11 11 11 11 12 12 11 11 11 11 11 10 10 10 10 10 10 10 10 10 10 10 10 10 10 10 10 9 9 9 9 9 9 9
11 11 11 11 11 11 10 10 10 10 10 11 11 11 11 11 11 11 10 10 10 10 10 10 10 10 10 10 10 10 10 10 10 10 9 9 9 9 9 9 8 8 8
11 11 11 10 10 10 10 10 10 10 10 10 10 10 10 10 10 10 10 10 10 10 9 9 9 9 9 9 10 10 10 9 9 9 9 9 9 9 9 8 8 8 8
10 10 10 10 10 10 9 10 10 10 10 10 10 10 10 10 10 9 9 9 9 9 9 9 9 9 9 9 9 9 9 9 9 9 9 8 8 8 8 8 8 8 7
10 10 10 10 9 9 9 9 9 9 9 9 9 10 10 9 9 9 9 9 9 9 9 9 9 9 9 9 9 9 9 9 9 8 8 8 8 8 8 8 8 8 7
10 9 9 9 9 9 9 9 9 9 9 9 9 9 9 9 9 9 9 9 9 9 9 9 8 8 8 8 8 8 8 8 8 8 8 8 8 8 8 7 7 7 7
9 9 9 9 9 9 8 8 8 8 8 9 9 9 9 9 9 9 9 8 8 8 8 8 8 8 8 8 8 8 8 8 8 8 7 7 7 7 7 7 7 7 7
9 9 9 9 9 8 8 8 8 8 8 8 8 8 8 8 8 8 8 8 8 8 8 8 8 8 8 8 8 8 8 8 7 7 7 7 7 7 7 7 7 7 7
Wind_Speed
2 2 1 1 1 1 1 0 0 0 1 0 0 1 1 1 1 1 1 2 2 2 2 2 1 1 1 1 1 1 0 1 2 2 1 2 2 3 4 4 4 3 3
3 2 2 2 2 1 0 0 0 0 0 0 0 1 1 0 1 1 1 1 1 1 1 1 1 1 1 1 1 0 0 1 1 2 2 2 2 3 4 3 3 3 3
3 3 2 2 2 1 1 0 1 1 1 1 0 0 1 0 1 1 1 1 1 1 1 1 0 1 1 0 1 0 0 0 0 1 2 1 2 2 3 3 3 3 4
3 3 2 2 2 1 1 0 0 1 1 0 0 0 1 1 0 1 2 1 1 1 1 1 1 1 1 1 1 1 0 0 0 0 1 1 2 2 2 2 3 3 3
3 3 3 2 1 1 1 1 1 1 1 0 0 1 1 1 0 1 2 2 1 0 0 1 1 1 2 2 1 2 1 1 1 1 1 1 2 2 2 1 2 3 3
3 3 3 2 2 2 2 1 1 1 0 1 0 0 1 1 1 1 2 1 1 1 1 2 2 1 2 2 2 3 2 2 2 2 1 2 3 2 2 2 2 2 2
3 3 3 3 2 2 2 1 1 1 1 0 0 0 1 2 1 1 2 2 1 1 2 2 2 1 1 2 2 2 2 2 4 3 3 3 3 3 2 2 3 3 3
3 3 3 3 3 2 2 2 2 1 1 1 1 1 1 2 2 2 1 1 1 1 2 2 2 2 2 1 1 1 1 2 2 2 3 4 3 3 3 2 3 3 3
4 4 4 4 4 3 3 3 2 2 2 2 2 2 2 3 3 3 2 1 1 2 2 2 2 2 2 2 2 1 1 2 2 2 2 3 3 3 2 1 0 1 2
5 5 4 4 4 4 4 3 2 2 2 2 2 2 2 3 3 3 2 2 2 2 2 2 2 2 2 3 3 2 2 3 2 1 2 2 2 1 2 2 2 1 2
3 3 3 4 4 4 3 2 2 2 2 1 2 2 2 3 3 4 3 2 3 3 2 2 2 3 3 4 4 3 4 3 2 2 2 2 2 1 1 2 3 2 2
2 2 3 3 3 3 3 3 2 2 2 2 2 2 3 3 3 4 4 4 3 3 3 3 3 3 3 3 3 4 4 2 1 1 1 2 2 3 3 2 3 4 4
1 3 3 2 2 3 3 3 2 2 2 3 2 3 3 3 3 4 4 4 4 3 3 4 4 3 3 3 3 3 3 2 2 2 3 3 3 3 2 2 2 2 2
2 3 2 2 2 2 2 3 3 3 3 3 3 3 3 3 3 2 2 3 3 3 3 3 3 3 2 3 2 2 2 3 3 4 4 3 2 2 2 1 2 2 2
1 2 2 2 2 2 2 3 4 4 5 5 4 4 4 4 5 5 3 3 3 3 2 1 1 1 2 2 2 2 2 2 3 3 3 3 2 2 2 2 2 2 2
1 2 2 1 1 1 1 2 2 3 4 6 6 6 5 6 5 4 5 5 4 3 2 2 2 3 3 3 3 3 3 3 4 4 4 4 3 3 3 2 2 2 3
1 1 1 1 1 1 1 1 3 3 3 3 5 5 6 5 5 5 5 4 3 3 2 3 3 4 4 4 4 4 4 4 4 4 4 4 4 3 3 3 3 3 3
1 1 1 1 2 2 2 2 2 3 3 4 3 4 4 5 5 5 4 2 1 2 3 4 4 4 4 4 4 4 4 3 3 4 4 4 4 4 4 4 4 4 3
1 1 1 1 1 2 2 2 2 3 3 3 3 3 3 3 3 4 3 2 3 4 4 4 5 5 4 4 4 4 4 4 4 4 4 4 4 4 4 4 4 4 4
1 2 2 1 1 1 2 2 2 3 3 3 4 4 2 1 2 2 2 3 4 5 5 5 5 5 4 4 4 4 4 4 4 4 4 4 4 4 5 5 4 4 4
1 2 2 1 1 2 2 3 3 3 4 4 4 5 4 4 4 4 4 4 4 5 5 5 5 4 4 4 3 4 4 4 4 4 4 4 4 4 4 4 5 4 4
1 1 1 1 2 2 3 3 3 4 4 5 4 4 5 4 4 4 4 4 4 4 4 4 4 4 4 4 4 4 4 4 4 4 4 4 3 4 4 4 4 4 4
1 1 2 2 2 2 2 3 3 3 4 4 4 3 3 3 4 4 4 4 3 4 3 3 4 3 3 4 4 4 4 5 4 4 4 4 4 4 4 4 5 4 4
1 1 2 2 2 2 2 3 3 4 4 4 4 4 3 3 4 4 4 4 3 3 3 3 4 5 5 4 4 4 5 5 4 4 5 5 4 4 4 4 5 5 5
1 1 2 2 2 2 3 3 3 4 4 4 4 4 3 3 4 4 4 3 4 4 4 4 4 5 6 6 5 5 5 5 5 4 4 4 4 4 4 5 4 4 4
2 2 2 2 2 2 3 3 4 4 4 4 4 3 3 3 4 4 3 3 3 4 4 4 5 5 5 5 5 5 4 4 4 4 3 3 3 3 3 3 4 4 4
Wind_Direction
145 136 118 124 124 116 146 197 225 33 66 65 88 56 30 15 44 79 77 80 87 67 61 81 59 51 70 70 94 107 126 184 236 287 298 333 340 345 349 354 349 340 337
168 152 151 149 134 125 190 242 148 103 96 192 162 136 206 253 70 101 106 99 118 112 96 92 58 74 69 72 112 132 237 239 221 274 302 330 331 333 337 343 355 352 344
159 157 151 149 155 165 228 251 158 139 92 63 91 180 247 236 171 146 138 143 154 158 145 139 156 116 83 66 100 106 264 296 223 242 288 311 318 333 340 346 351 348 351
159 165 158 176 180 184 185 160 174 148 140 163 235 286 295 296 206 170 159 164 160 161 177 193 192 176 200 211 180 197 178 121 129 203 272 313 316 331 344 340 339 341 336
173 171 183 187 180 164 155 154 141 165 195 190 61 343 315 324 279 158 165 168 178 207 283 263 218 203 208 213 212 206 185 186 182 198 244 300 306 317 318 312 314 323 312
176 199 197 182 176 184 187 176 162 175 160 77 119 271 307 307 342 157 158 182 194 215 256 275 261 265 263 255 249 231 207 203 203 205 238 264 277 283 290 289 297 312 304
192 204 198 195 201 206 196 177 189 197 185 158 297 273 288 297 302 243 204 185 210 230 245 261 269 278 242 260 282 286 263 231 199 198 222 249 256 252 253 275 266 267 273
197 212 206 200 205 200 186 201 217 202 195 210 237 245 278 299 289 265 228 189 239 249 249 240 237 260 251 223 252 308 295 271 238 220 230 246 253 238 229 248 257 273 288
203 211 211 204 204 197 201 211 218 198 207 223 233 232 248 286 289 264 209 201 246 274 270 257 234 246 247 191 175 236 289 299 291 258 258 270 271 251 204 151 246 283 293
217 216 210 204 205 213 211 210 220 206 216 225 247 249 242 261 276 268 229 216 235 259 272 268 249 246 241 194 187 200 240 265 280 312 323 324 313 279 216 212 213 241 282
230 215 212 211 209 214 211 207 204 208 211 225 251 276 271 268 269 257 232 220 229 241 255 266 268 257 246 223 206 213 232 239 240 247 278 304 316 300 266 239 230 228 243
227 222 221 224 221 212 206 215 204 194 211 243 256 284 288 283 271 255 233 228 226 229 245 253 259 253 248 241 227 231 226 216 213 227 256 274 280 279 281 274 259 251 252
212 226 228 227 222 213 205 214 216 201 210 237 247 266 286 289 277 259 242 239 237 237 247 251 266 268 261 258 249 231 210 210 213 231 246 257 262 266 277 290 293 281 287
243 245 226 215 229 235 219 214 218 221 223 227 232 252 275 284 280 267 249 245 246 246 259 269 271 271 259 260 261 247 228 219 221 235 247 262 271 267 265 271 276 277 289
314 274 249 231 227 242 248 241 234 232 222 216 226 230 237 258 262 246 240 249 245 234 231 266 287 293 288 283 271 255 238 229 232 244 245 255 258 257 263 257 258 259 264
331 318 267 239 226 224 259 305 307 261 246 232 229 229 245 245 252 247 249 255 255 213 185 239 258 259 257 257 254 255 248 244 240 238 239 240 243 245 253 254 245 240 253
263 285 297 276 256 242 234 254 298 317 298 257 245 243 244 249 249 249 246 245 237 186 208 242 248 247 246 247 248 248 249 250 242 237 237 240 240 240 241 243 239 242 250
290 294 284 260 258 256 252 253 257 269 291 299 286 255 250 251 246 243 230 199 245 227 240 246 249 249 246 245 248 251 255 254 249 243 241 240 233 233 237 242 239 242 250
310 288 271 261 253 254 264 270 275 274 273 281 291 287 259 243 235 238 211 214 239 248 249 252 254 254 251 247 249 252 252 253 254 249 244 240 233 229 236 242 246 243 243
300 304 306 269 262 267 269 268 273 272 272 272 269 271 272 254 262 259 239 237 241 249 251 253 253 251 250 251 251 251 254 256 253 249 248 243 240 233 234 240 242 244 242
301 302 321 298 272 269 275 270 266 265 268 271 273 268 245 242 246 248 250 250 249 253 255 256 254 254 254 255 255 252 254 263 262 254 250 245 237 240 244 243 241 240 244
289 292 289 276 275 272 270 270 270 271 274 276 283 279 251 242 242 246 251 255 256 254 252 250 252 254 253 252 250 249 251 254 257 259 258 254 247 242 247 248 246 243 242
303 301 310 305 292 291 291 288 282 279 280 280 281 280 268 254 251 253 257 260 262 264 263 253 252 262 269 265 255 245 247 251 250 248 250 253 250 245 241 242 244 246 242
302 287 290 296 298 294 292 292 288 285 284 285 283 278 271 267 264 263 265 270 273 273 263 254 254 261 269 272 265 253 251 255 252 243 243 245 247 245 244 245 246 244 242
301 290 289 289 291 292 295 295 292 289 288 286 283 278 276 277 276 274 270 272 276 275 272 264 261 265 270 270 270 268 265 257 250 245 238 237 242 245 245 244 245 249 245
298 292 290 288 289 291 290 290 292 294 291 289 287 282 279 278 280 280 282 285 287 284 283 277 271 267 271 274 273 274 265 257 257 250 233 231 240 247 246 242 244 242 244
Height
1518 1519 1520 1520 1520 1521 1521 1521 1521 1520 1521 1521 1521 1521 1520 1520 1520 1520 1520 1520 1520 1520 1520 1520 1520 1520 1520 1519 1519 1519 1519 1519 1517 1516 1516 1515 1515 1514 1513 1512 1511 1510 1509
1516 1517 1518 1518 1518 1519 1519 1519 1519 1518 1519 1519 1519 1519 1518 1518 1518 1517 1518 1518 1518 1518 1518 1518 1518 1518 1518 1517 1517 1517 1517 1516 1516 1514 1514 1513 1512 1511 1510 1509 1508 1507 1506
1515 1516 1516 1516 1517 1517 1517 1517 1517 1517 1517 1517 1517 1516 1516 1516 1515 1515 1516 1516 1516 1516 1516 1516 1516 1516 1516 1515 1515 1514 1514 1514 1513 1513 1512 1511 1510 1509 1508 1507 1506 1505 1504
1513 1513 1513 1514 1514 1515 1515 1515 1515 1515 1515 1515 1515 1514 1514 1513 1513 1513 1513 1514 1514 1514 1514 1514 1514 1514 1514 1513 1513 1512 1512 1512 1511 1510 1509 1508 1507 1506 1506 1505 1504 1503 1502
1510 1511 1511 1512 1512 1513 1513 1513 1513 1513 1513 1513 1512 1512 1512 1511 1511 1511 1511 1511 1512 1512 1512 1512 1511 1511 1511 1511 1511 1510 1509 1509 1508 1507 1506 1505 1505 1504 1503 1502 1501 1500 1500
1508 1508 1509 1510 1510 1510 1511 1511 1511 1511 1511 1510 1510 1509 1509 1509 1509 1509 1509 1509 1509 1509 1509 1509 1509 1509 1509 1509 1508 1508 1507 1506 1505 1505 1504 1503 1502 1502 1501 1500 1499 1498 1497
1506 1506 1507 1507 1508 1508 1508 1508 1508 1508 1508 1508 1507 1507 1506 1506 1506 1506 1506 1506 1506 1506 1506 1506 1506 1506 1506 1506 1506 1505 1504 1504 1503 1503 1501 1500 1500 1499 1498 1497 1497 1496 1495
1503 1503 1504 1504 1505 1505 1505 1505 1506 1505 1505 1505 1504 1504 1504 1504 1504 1503 1503 1503 1503 1503 1503 1503 1503 1503 1503 1503 1502 1502 1501 1500 1500 1499 1499 1498 1497 1496 1495 1495 1494 1493 1492
1500 1501 1501 1502 1502 1502 1502 1502 1502 1502 1502 1502 1502 1502 1501 1501 1501 1501 1501 1500 1500 1500 1501 1501 1500 1500 1500 1500 1499 1498 1498 1497 1497 1497 1496 1495 1495 1494 1493 1492 1491 1490 1488
1497 1498 1498 1499 1499 1500 1499 1499 1499 1499 1499 1499 1499 1499 1499 1499 1499 1499 1499 1498 1497 1497 1497 1497 1497 1497 1497 1496 1496 1495 1494 1494 1494 1493 1493 1492 1491 1491 1490 1489 1488 1487 1485
1495 1495 1496 1496 1496 1497 1497 1497 1496 1496 1496 1496 1496 1496 1496 1496 1496 1496 1496 1495 1494 1494 1493 1493 1493 1493 1493 1493 1492 1492 1491 1491 1490 1490 1489 1488 1488 1487 1487 1486 1485 1484 1483
1492 1492 1493 1493 1493 1493 1493 1493 1493 1493 1493 1493 1493 1493 1493 1493 1493 1493 1492 1492 1491 1491 1490 1490 1490 1490 1489 1489 1489 1488 1488 1488 1487 1486 1485 1485 1484 1484 1483 1482 1482 1481 1480
1489 1489 1489 1489 1489 1490 1490 1490 1490 1489 1489 1490 1490 1489 1489 1490 1490 1489 1489 1488 1488 1487 1487 1486 1486 1486 1486 1485 1485 1484 1484 1484 1483 1483 1482 1481 1481 1480 1480 1479 1478 1477 1477
1486 1485 1485 1485 1486 1486 1487 1487 1487 1486 1487 1486 1486 1486 1486 1486 1486 1486 1485 1484 1484 1484 1483 1483 1482 1482 1482 1481 1480 1480 1480 1480 1480 1479 1478 1478 1478 1477 1476 1475 1474 1473 1472
1482 1481 1481 1482 1482 1482 1483 1483 1483 1484 1484 1483 1483 1483 1483 1482 1482 1482 1481 1481 1480 1480 1479 1478 1478 1478 1477 1477 1477 1476 1476 1476 1475 1475 1475 1474 1473 1473 1472 1471 1470 1470 1469
1479 1478 1477 1478 1478 1479 1479 1479 1479 1480 1480 1480 1480 1480 1479 1479 1479 1479 1478 1477 1477 1476 1475 1474 1473 1473 1473 1473 1472 1472 1471 1471 1471 1470 1470 1470 1469 1468 1468 1467 1467 1466 1465
1477 1476 1475 1475 1475 1475 1475 1475 1475 1476 1476 1476 1476 1476 1475 1475 1475 1475 1474 1474 1473 1472 1471 1469 1469 1469 1469 1468 1468 1467 1467 1467 1467 1466 1465 1465 1464 1464 1464 1463 1462 1462 1461
1475 1475 1474 1474 1473 1473 1473 1473 1473 1472 1471 1471 1472 1472 1471 1471 1471 1470 1470 1469 1468 1467 1466 1465 1464 1464 1464 1464 1464 1463 1463 1462 1462 1461 1460 1460 1460 1459 1459 1459 1458 1458 1457
1474 1473 1472 1472 1471 1471 1470 1470 1469 1469 1468 1468 1467 1467 1467 1467 1466 1466 1465 1464 1463 1462 1462 1461 1460 1460 1460 1459 1459 1459 1458 1458 1457 1456 1455 1455 1455 1455 1455 1455 1454 1454 1453
1472 1471 1470 1469 1468 1468 1467 1467 1466 1466 1465 1464 1463 1463 1463 1462 1461 1461 1460 1460 1459 1458 1457 1457 1456 1456 1455 1455 1454 1454 1453 1453 1452 1452 1451 1451 1451 1450 1450 1450 1449 1449 1448
1469 1469 1468 1467 1466 1465 1465 1464 1463 1463 1462 1461 1460 1459 1459 1458 1457 1456 1456 1456 1455 1454 1453 1452 1452 1451 1451 1450 1449 1449 1448 1448 1447 1447 1446 1446 1446 1446 1445 1445 1444 1444 1444
1468 1466 1465 1464 1463 1463 1462 1461 1460 1459 1458 1457 1456 1456 1455 1454 1453 1452 1452 1451 1451 1450 1449 1448 1447 1447 1446 1446 1445 1444 1443 1443 1442 1442 1442 1442 1441 1441 1441 1441 1440 1440 1440
1466 1465 1464 1462 1461 1460 1459 1458 1457 1456 1455 1454 1453 1452 1451 1450 1449 1448 1448 1447 1447 1446 1445 1444 1443 1443 1442 1441 1441 1440 1439 1438 1438 1438 1437 1437 1437 1436 1436 1436 1436 1436 1436
1464 1463 1462 1461 1459 1458 1457 1456 1454 1453 1452 1451 1450 1448 1447 1446 1446 1445 1444 1444 1443 1442 1441 1440 1439 1438 1438 1437 1436 1436 1435 1434 1434 1434 1434 1433 1433 1433 1432 1432 1432 1432 1432
1462 1461 1460 1458 1457 1456 1454 1453 1452 1450 1449 1448 1447 1445 1444 1443 1442 1441 1440 1439 1439 1438 1437 1436 1435 1434 1433 1432 1432 1431 1431 1431 1431 1430 1430 1430 1430 1429 1429 1429 1428 1429 1428
1460 1459 1458 1456 1455 1453 1452 1450 1449 1448 1447 1445 1444 1443 1441 1440 1439 1437 1437 1436 1435 1434 1433 1432 1431 1430 1429 1428 1428 1428 1427 1427 1427 1427 1426 1426 1426 1426 1425 1425 1425 1425 1425